Weather Roundup
Issued by NWS

Home | Current Version | Previous Version | Text Only | Print | Product List | Glossary On
Versions: 1 2 3 4 5 6 7 8 9 10 11 12 13 14 15 16 17 18 19 20 21 22 23 24 25 26 27 28 29 30 31 32 33 34 35 36 37 38 39 40 41 42 43 44 45 46 47 48 49 50
000
NZUS93 KARX 300110
HRRWXR

CURRENT HOURLY OBSERVATIONS ACROSS
MUCH OF THE UPPER MISSISSIPPI VALLEY
NATIONAL WEATHER SERVICE LA CROSSE WI
800 PM CDT MON SEP 29 2014


...SOUTHEAST MINNESOTA...


CITY           SKY/WX    TMP DP  RH WIND       PRES   REMARKS
ROCHESTER      CLEAR     53  47  79 NE7       30.08S
ROCHESTER/MAYO FAIR      55  46  70 NE7       30.08S
WINONA         CLEAR     54  48  82 CALM      30.08R
AUSTIN         PTCLDY    54  48  82 NE7       30.06S
ALBERT LEA     CLEAR     55  48  76 NE9       30.06S
DODGE CENTER   CLOUDY    55  48  76 NE8       30.07F
PRESTON        CLEAR     50  47  90 NE3       30.08R
OWATONNA       CLEAR     54  46  76 N7        30.08S
FARIBAULT      PTCLDY    55  45  67 N5        30.09S
$$

...ELSEWHERE IN MINNESOTA...


CITY           SKY/WX    TMP DP  RH WIND       PRES   REMARKS
MINNEAPOLIS    PTCLDY    52  44  74 N9G18     30.11S
INTNL FALLS    CLOUDY    45  39  79 E6        30.20R
DULUTH         CLOUDY    44  38  79 E8        30.18F
RED WING       CLEAR     54  45  71 NE5       30.09S
REDWOOD FALLS  CLEAR     55  47  74 E9        30.07F
MANKATO        PTCLDY    55  45  67 E10       30.08S
WORTHINGTON    CLEAR     59  52  77 NE9       30.04S
FAIRMONT       CLEAR     55  46  71 NE7       30.05S
$$

...SOUTHWEST WISCONSIN...


CITY           SKY/WX    TMP DP  RH WIND       PRES   REMARKS
LA CROSSE      PTCLDY    56  49  77 NE5       30.07R
PRAIRIE DU CHI CLOUDY    57  50  76 N10       30.04R
BOSCOBEL       CLOUDY    57  50  77 NE9G20    30.05R
LONE ROCK      CLOUDY    59  51  75 NE14      30.06R
PLATTEVILLE    CLOUDY    58  54  86 N15G21    30.03R
FORT MC COY    CLEAR     49  47  93 CALM      30.08R
CAMP DOUGLAS   CLEAR     50  50 100 NE5       30.07S
VIROQUA        CLOUDY    54  50  87 N10       30.06S
WIS DELLS      CLOUDY    52  49  91 NE6       30.06S
$$

...ELSEWHERE IN WISCONSIN...


CITY           SKY/WX    TMP DP  RH WIND       PRES   REMARKS
MILWAUKEE      RAIN      51  48  89 N9        30.04R
MADISON        CLOUDY    52  48  86 NE13      30.05R
GREEN BAY      CLOUDY    49  44  83 N10       30.09R
EAU CLAIRE     CLEAR     50  41  71 N7        30.11R
BLACK RVR FLS  FAIR      45  45 100 CALM      30.07S
MEDFORD        MOCLDY    42  38  86 NE7       30.12R
WAUSAU         MOCLDY    47  39  74 NE9       30.09S
WIS RAPIDS     CLOUDY    53  43  68 NE14      30.09S
MARSHFIELD     CLEAR     49  42  77 NE9       30.09R
RICE LAKE      CLEAR     46  40  79 NE8       30.16R
$$

...NORTHEAST IOWA...


CITY           SKY/WX    TMP DP  RH WIND       PRES   REMARKS
DECORAH        CLOUDY    54  50  87 VRB5G12   30.06R
MASON CITY     CLEAR     57  51  80 NE7       30.06R
CHARLES CITY   CLEAR     57  50  77 NE13      30.05R
OELWEIN        PTCLDY    61  55  82 N12       30.02R
$$

...ELSEWHERE IN IOWA...


CITY           SKY/WX    TMP DP  RH WIND       PRES   REMARKS
DES MOINES     PTCLDY    76  62  62 CALM      29.95F
IOWA CITY      CLOUDY    71  64  78 W3        29.95S
FORT DODGE     CLOUDY    63  57  82 NE7       30.03R
$$

...NORTHERN ILLINOIS...


CITY           SKY/WX    TMP DP  RH WIND       PRES   REMARKS
CHICAGO-OHARE  CLOUDY    57  53  86 N18G26    29.99R
CHICAGO-MIDWAY CLOUDY    62  57  83 NE16G28   29.98R
MOLINE         NOT AVBL
ROCKFORD       PTCLDY    63  55  75 NE14      30.00R
PEORIA         CLEAR     71  60  68 CALM      29.95S
$$

NOTE: "FAIR" INDICATES FEW OR NO CLOUDS BELOW 12,000 FEET WITH NO
SIGNIFICANT WEATHER AND/OR OBSTRUCTIONS TO VISIBILITY. WIND
SPEEDS ARE IN MILES-PER-HOUR.



USA.gov is the U.S. government's official web portal to all federal, state and local government web resources and services.